User: anonymous   Login
Location: Unspecified
(0.0000°N, 0.0000°E)
Time: 15:58:41
(UTC+00:00)
Language:

Sich 1 - Orbit

View from above orbital plane
View from above orbital plane
View from above satellite
View from above satellite

Ground track
Ground track

The orbit data is extracted from the following two-line orbital elements,

1 23657U 95046A   18345.50252435  .00000196  00000-0  19437-4 0  9998
2 23657  82.5269 111.2741 0023664  87.1801 273.2123 14.86019758258026
Epoch (UTC): 11 December 2018 12:03:38
Eccentricity: 0.0023664
inclination: 82.5269°
perigee height: 594 km
apogee height: 627 km
right ascension of ascending node: 111.2741°
argument of perigee: 87.1801°
revolutions per day: 14.86019758
mean anomaly at epoch: 273.2123°
orbit number at epoch: 25802

The dashed part of the orbit path shows where the satellite is in the earth's shadow,  

DLR